1st Responders/1st Detectors/Storm Spotters Weather Summary for Whitley County, KY

Forecast Maps


Reg. NEXRAD Animation


National Fire Danger: Day 1 & 2 Map

Current NWS Watch/Warnings

SPC Convective Day 1 Outlook


Day 2 Outlook

(Click images to enlarge|Page will refresh every 5 minutes)
UK Ag. Weather Center Desktop Severe Weather Service[HERE]
Whitley County, KY Hazardous Weather Outlook Webcast
(9 AM to 9 PM Mon-Fri)
[Fast]
[Dial-up]


UKAWC 1st Detectors/1st Responders Precision Weather Forecast For WHITLEY County, Kentucky
(based on the NWS County Digital Forecast)

ISSUED AT 05:00 UTC ON WEDNESDAY DEC 19 2018
DAY WEDNESDAY
EDT 3HR 2A 3A 4A 5A 6A 7A 8A 9A 10A 11A NOON 1P 2P 3P 4P 5P 6P 7P
MAX/MIN -- -- -- -- -- -- 29° -- -- -- -- -- -- -- -- -- -- 58°
TEMP 31° 29° 29° 29° 29° 29° 29° 32° 36° 40° 45° 49° 54° 56° 58° 58° 54° 52°
SKY COVER 8% 16% 24% 29% 26% 17% 13% 10% 9% 7% 9% 9% 13% 18% 24% 29% 37% 46%
Clouds
DEW PT 29° 29° 29° 29° 29° 27° 27° 29° 31° 34° 34° 36° 38° 38° 38° 40° 38° 38°
RH 92% 96% 95% 96% 100% 95% 91% 84% 81% 75% 67% 58% 56% 51% 48% 50% 54% 59%
POP 12HR -- -- -- -- -- -- 0% -- -- -- -- -- -- -- -- -- -- --
RAIN/SNOW (liq.equ) 0.00in -- -- -- -- -- 0.00in -- -- -- -- -- 0.00in -- -- -- -- --
SNOWFALL 0in -- -- -- -- -- 0in -- -- -- -- -- 0in -- -- -- -- --
WIND SPEED(MPH) 0 0 0 1 1 1 1 1 1 1 2 2 5 2 2 1 1 1
WIND Gust(MPH) 1 1 1 2 2 2 2 2 2 2 6 6 7 6 6 2 2 2
WIND DIR SE SE S S S S S S S S S S S S S S S S
DEW Frost Frost Frost Frost Frost Frost Frost Frost Frost Patchy Frost -- -- -- -- -- -- -- --
HeatIndex 31 29 29 29 29 29 29 32 36 40 43 49 54 56 58 58 54 52
Snow -- -- -- -- -- -- -- -- -- -- -- -- -- -- -- -- -- --
Rain -- -- -- -- -- -- -- -- -- -- -- -- -- -- -- -- -- --
WIND CHILL -- -- -- -- -- -- -- -- -- -- -- -- -- -- -- -- -- --
SPRAY COND
DRY COND
LIVESTOCK COLDSTRESS



DAY THURSDAY FRIDAY SATURDAY SUNDAY MONDAY TUESDAY
EDT 6HR 8P 9P 10P 11P MIDN 1A 2A 3A 4A 5A 6A 7A 8A 9A 10A 11A NOON 1P 2P 5P 8P 11P 2A 5A 8A 11A 2P 5P 8P 2A 8A 2P 8P 2A 8A 2P 8P 2A 8A 2P 8P 2A 8A 2P 8P
MAX/MIN -- -- -- -- -- -- -- -- -- -- -- -- 40° -- -- -- -- -- -- 49° -- -- -- -- 40° -- -- 40° -- -- 29° 43° -- -- 29° 47° -- -- 29° 47° -- -- 31° 49° --
TEMP 47° 45° 45° 43° 43° 43° 43° 41° 41° 40° 40° 40° 40° 41° 43° 45° 47° 49° 49° 49° 45° 45° 43° 41° 40° 40° 40° 38° 36° 34° 31° 41° 36° 29° 31° 45° 40° 32° 29° 45° 38° 31° 32° 47° 43°
SKY COVER 54% 57% 60% 63% 75% 87% 100% 100% 100% 100% 97% 95% 92% 92% 92% 92% 94% 97% 100% 100% 100% 100% 100% 100% 100% 100% 100% 100% 97% 80% 63% 31% 22% 33% 48% 59% 49% 30% 28% 31% 26% 29% 45% 53% 60%
Clouds
DEW PT 38° 38° 36° 36° 36° 36° 38° 38° 38° 38° 38° 38° 38° 40° 40° 40° 41° 43° 43° 45° 45° 43° 43° 41° 40° 40° 38° 36° 34° 29° 25° 27° 27° 27° 29° 34° 34° 29° 27° 27° 29° 25° 29° 36° 36°
RH 67% 73% 73% 76% 76% 78% 82% 85% 89% 92% 92% 92% 92% 92% 85% 82% 82% 79% 80% 86% 96% 95% 96% 100% 100% 95% 92% 96% 92% 81% 81% 54% 72% 91% 92% 65% 79% 88% 92% 51% 66% 81% 84% 65% 79%
POP 12HR 0% -- -- -- -- -- -- -- -- -- -- -- 39% -- -- -- -- -- -- -- 93% -- -- -- 95% -- -- -- 94% -- 74% -- 5% -- 3% -- 10% -- 9% -- 4% -- 8% -- 23%
RAIN/SNOW (liq.equ) 0.00in -- -- -- -- -- 0.00in -- -- -- -- -- 0.00in -- -- -- -- -- 0.05in -- 0.29in -- 0.32in -- 0.27in -- 0.28in -- 0.13in -- -- -- -- -- -- -- -- -- -- -- -- -- -- -- --
SNOWFALL 0in -- -- -- -- -- 0in -- -- -- -- -- 0in -- -- -- -- -- 0in -- 0in -- 0in -- 0in -- 0in -- 0in -- -- -- -- -- -- -- -- -- -- -- -- -- -- -- --
WIND SPEED(MPH) 1 1 1 1 1 1 1 1 1 1 1 2 2 2 5 5 5 6 6 6 5 5 6 6 8 10 9 10 10 7 7 7 5 5 5 7 6 5 2 2 2 2 5 7 6
WIND DIR S S S S S S S S S S S SE E E E E E E E E NE N N N N NW NW NW NW NW W W SW S S W W W SW SW E SE S S S
HeatIndex 47 45 45 43 43 43 43 41 41 40 40 38 38 40 41 45 47 49 49 49 45 42 40 38 35 34 33 30 27 27 24 37 32 25 26 45 35 28 26 43 36 27 28 47 39
Snow -- -- -- -- -- -- -- -- -- -- -- -- -- -- -- -- -- -- -- -- -- -- -- -- -- -- -- -- -- Slight Chance -- -- -- -- -- -- -- -- -- -- -- -- -- -- --
Rain -- -- -- -- -- -- -- -- Slight Chance Chance Chance Chance Chance Chance Chance Likely Likely Likely Likely Definite Definite Definite Definite Definite Definite Definite Definite Definite Likely Slight Chance -- -- -- -- -- -- -- -- -- -- -- -- -- Slight Chance --
WIND CHILL -- -- -- -- -- -- -- -- -- -- -- -- -- -- 40° 43° -- -- -- -- 43° 43° 39° 37° 35° 34° 34° 31° 29° 28° 25° 36° 32° 24° 26° 41° 36° 28° -- -- -- -- 28° -- 39°
SPRAY COND
DRY COND
LIVESTOCK COLDSTRESS

Click on individual weather variable above in left-hand column (ie., TEMP, RH, QPF 12HR) to view state forecast maps






NWS 48 Hr. Forecast Maps,

Regional Hourly Observations For WHITLEY County, Kentucky
Issued at 100 AM EST WED DEC 19 2018
SOUTHEAST KENTUCKY
  
CITY           SKY/WX    TMP DP  RH WIND       PRES   REMARKS
JACKSON        FAIR      34  25  69 E3        30.09F                  
LONDON         FAIR      30  28  92 CALM      30.09F                  
SOMERSET       NOT AVBL                                               
MIDDLESBORO    FAIR      29  29 100 CALM      30.11F                  
MONTICELLO     FAIR      25  22  88 NE10      30.10F WCI  15          


Current NOWCAST not available:
Nowcasts are not issued routinely during fair weather. Only when
precipitation or other significant weather is occuring in this county will these
forecasts be issued. Currently, there is no short term forecast in effect.


Fire Weather Forecast For WHITLEY County, KY
Provided by the National Weather Service:

Issued at: Wed Dec 19 01:05:01 EST 2018

                      Today        Tonight      Wed          

Cloud Cover           MClear       MClear       MClear       
Chance precip (%)     0            0            0            
Precip type           None         None         None         
Temp (24H TREND)      47-50 (-1)   25-32 (+5)   56-59        
Rh % (24H TREND)      47-50 (-2)   85-100 (+1)  41-46        
20ftwnd-AM(mph)       Lgt/Var                   S 2-6        
20ftwnd-PM(mph)       NE 2-6       Lgt/Var      S 2-6        
Precip duration                                              
Precip begin                                                 
Precip end                                                   
Precip amount         0.00         0.00         0.00         
LAL                   1            1            1            
Haines Index (MID)    4                         5            
Mixing hgt(ft-AGL)    1600                      1800         
Transport wnd (mph)   E  7                      SW 13        
Vent rate (kt-ft)     8929                      19240        
ADI Early             12 Poor      4 Very Poor  25 Fair      
ADI Late              13 Gen Poor  14 Gen Poor  28 Fair      
Max LVORI Early       7            6            5            
Max LVORI Late        3            6            3            

REMARKS...RANGES OF MIN T EXCEEDING 8 DEGREES & RANGES OF MAX RH        
EXCEEDING 10% INDICATE THE LIKELIHOOD OF THERMAL BELTS. ADI IS        
ATMOSPHERIC DISPERSION INDEX BY LAVDAS. DISPERSION INDEX IS        
MAGNITUDE OF VENT RATE DIVIDED BY 1000.


SPC's Fire Weather Web Tool (Excellent!), SPC's Fire Weather Outlooks, NWS Fire Weather WEB, Fire Danger Class Map,
Keetch-Byram Drought Index, ROMAN Web, Haines Index ,
WFAS's 10-hr Dead Fuel Moist., WFAS's 100-hr Dead Fuel Moist., Probablity of Ignition, Visual blackness Map, Palmer Drought Index, HPC's Rainfall Forecast Maps


Hazardous Weather Outlook For WHITLEY County, Kentucky
345 PM EST Tue Dec 18 2018

 DAY ONE  Tonight.

No hazardous weather is expected at this time.

 DAYS TWO THROUGH SEVEN  Wednesday through Monday.

Heavy rain is expected Thursday and Friday. This could lead to a 
period of high water along streams and rivers.

Some light accumulating snow is possible Friday night, mainly in 
the higher terrain closer to the Virginia border.

 SPOTTER INFORMATION STATEMENT  

Spotter activation is not anticipated.

Latest WHITLEY County, Kentucky Watches, Warnings and Advisories.
Additional Drought Info.: UKAWC Drought Page, Kentucky Drought Watch


7-Day Forecast For WHITLEY County, KY

REST OF TONIGHT
Mostly clear. Areas of valley fog. Lows in the upper 20s. Light winds.

WEDNESDAY
Sunny. Highs in the upper 50s. Light winds.

WEDNESDAY NIGHT
Mostly cloudy. A slight chance of rain late. A chance of rain near dawn. Lows in the lower 40s. Light winds. Chance of rain 40 percent.

THURSDAY
Rain. Highs around 50. Light winds. Chance of rain 90 percent.

THURSDAY NIGHT
Rain. Lows in the lower 40s. Light winds. Chance of rain near 100 percent.

FRIDAY
Rain. Highs in the lower 40s. Chance of rain near 100 percent.

FRIDAY NIGHT
Mostly cloudy with snow or rain likely. Lows in the upper 20s. Chance of precipitation 70 percent.

SATURDAY
Mostly sunny. Highs in the lower 40s.

SATURDAY NIGHT
Partly cloudy. Lows in the upper 20s.

SUNDAY
Partly sunny. Highs in the upper 40s.

SUNDAY NIGHT
Partly cloudy. Lows in the upper 20s.

MONDAY
Mostly sunny. Highs in the upper 40s.

MONDAY NIGHT
Partly cloudy. Lows around 30.

CHRISTMAS DAY
Partly sunny with a 20 percent chance of rain. Highs in the lower 50s.

Ag Weather Center, Department of Biosystems & Agricultural Engineering, University of Kentucky